Back to catalog

FENGYUN 1C DEB

AliveSSO
NORAD 30701·DEBRIS·🇨🇳 China

Launched May 10, 1999 from Taiyuan Satellite Launch Center

Loading…

Next Passes (next 24 hours)

TLE

FreshSource: Space-Track

Epoch: Sep 14, 2026, 08:26 UTC

1 30701U 99025ARK 26257.35163404 -.00000030  00000-0  65045-5 0  9993
2 30701  98.6821 296.2847 0035300  38.1392  24.8005 14.13950760 10154

Track FENGYUN 1C DEB in real time with AllMySat

Download on the App Store